Probability
0 0 0 0 0 0 0 0 0 0 0 0 0 0 0 0 0 0 10 42 65 58 45 52 55 52 55 52 52 55 52 52 52 45 55 55 61 74 74 77 77 84 90
0 0 0 0 0 0 0 0 0 0 0 0 0 0 0 0 0 0 6 10 52 58 55 48 61 52 61 55 48 52 52 52 58 55 55 55 58 65 74 81 81 90 84
0 0 0 0 0 0 0 0 0 0 0 0 0 0 0 0 0 0 0 6 13 29 58 55 61 61 61 58 48 45 55 61 58 55 55 55 61 61 77 81 77 81 81
0 0 0 0 0 0 0 0 0 0 0 0 0 0 0 0 0 0 0 0 0 10 26 52 58 61 58 55 52 52 52 58 58 58 68 65 58 61 74 68 77 81 81
0 0 0 0 0 0 0 0 0 0 0 0 0 0 0 0 0 0 0 0 0 0 3 19 45 61 61 61 58 58 48 48 48 55 61 65 58 71 81 77 77 77 68
0 0 0 0 0 0 0 0 0 0 0 0 0 0 0 0 0 0 0 0 0 0 3 3 16 23 55 61 71 65 61 42 48 58 55 61 61 61 68 68 77 77 74
0 0 0 0 0 0 0 0 0 0 0 0 0 0 0 0 0 0 0 0 0 0 3 0 3 6 23 42 52 61 58 55 58 52 61 61 61 65 71 77 77 71 68
0 0 0 0 0 0 0 0 0 0 0 0 0 0 0 0 0 0 0 0 0 0 0 0 6 3 0 10 16 42 55 65 48 52 58 58 58 68 71 74 74 74 74
0 0 0 0 0 0 0 0 0 0 0 0 0 0 0 0 0 0 0 0 0 0 0 3 0 0 0 6 6 13 29 35 58 48 48 55 58 71 65 68 71 74 74
0 0 0 0 0 0 0 0 0 0 0 0 0 0 0 0 0 0 0 0 0 0 0 0 0 0 0 0 3 6 10 13 35 48 39 42 52 65 68 68 74 77 74
0 0 0 0 0 0 0 0 0 0 0 0 0 0 0 0 0 0 0 0 0 0 0 0 0 0 0 0 0 3 3 10 19 39 42 45 45 48 55 61 68 68 71
0 0 0 0 0 0 0 0 0 0 0 0 0 0 0 0 0 0 0 0 0 0 0 0 0 0 0 0 0 3 3 3 6 23 32 42 45 42 39 45 55 61 65
0 0 0 0 0 0 0 0 0 0 0 0 0 0 0 0 0 0 0 0 0 0 0 0 0 0 3 0 0 3 3 3 3 6 16 19 23 35 45 52 55 58 58
0 0 0 0 0 0 0 0 0 0 0 0 0 0 0 0 0 0 0 0 0 0 0 0 0 0 0 0 0 3 3 3 3 3 3 3 10 13 19 39 48 48 48
0 0 0 0 0 0 0 0 0 0 0 0 0 0 0 0 0 0 0 0 0 0 0 0 0 0 0 0 0 0 0 0 0 0 0 0 0 0 13 16 23 29 35
0 0 0 0 0 0 0 0 0 0 0 0 0 0 0 0 0 0 0 0 0 0 0 0 0 0 0 0 0 0 0 0 0 0 0 0 0 0 0 3 6 3 3
0 0 0 0 0 0 0 0 0 0 0 0 0 0 0 0 0 0 0 0 0 0 0 0 0 0 0 0 0 0 0 0 0 0 0 0 0 0 0 0 0 0 0
0 0 0 0 0 0 0 0 0 0 0 0 0 0 0 0 0 0 0 0 0 0 0 0 0 0 0 0 0 0 0 0 0 0 0 0 0 0 0 0 0 0 0
0 0 0 0 0 0 0 0 0 0 0 0 0 0 0 0 0 0 0 0 0 0 0 0 0 0 0 0 0 0 0 0 0 0 0 0 0 0 0 0 0 0 0
0 0 0 0 0 0 0 0 0 0 0 0 0 0 0 0 0 0 0 0 0 0 0 0 0 0 0 0 0 0 0 0 0 0 0 0 0 0 0 0 0 0 0
0 0 0 0 0 0 0 0 0 0 0 0 0 0 0 0 0 0 0 0 0 0 0 0 0 0 0 0 0 0 0 0 0 0 0 0 0 0 0 0 0 0 0
0 0 0 0 0 0 0 0 0 0 0 0 0 0 0 0 0 0 0 0 0 0 0 0 0 0 0 0 0 0 0 0 0 0 0 0 0 0 0 0 0 0 0
0 0 0 0 0 0 0 0 0 0 0 0 0 0 0 0 0 0 0 0 0 0 0 0 0 0 0 0 0 0 0 0 0 0 0 0 0 0 0 0 0 0 0
0 0 0 0 0 0 0 0 0 0 0 0 0 0 0 0 0 0 0 0 0 0 0 0 0 0 0 0 0 0 0 0 0 0 0 0 0 0 0 0 0 0 0
0 0 0 0 0 0 0 0 0 0 0 0 0 0 0 0 0 0 0 0 0 0 0 0 0 0 0 0 0 0 0 0 0 0 0 0 0 0 0 0 0 0 0
0 0 0 0 0 0 0 0 0 0 0 0 0 0 0 0 0 0 0 0 0 0 0 0 0 0 0 0 0 0 0 0 0 0 0 0 0 0 0 0 0 0 0
Height
5855 5852 5849 5847 5844 5841 5838 5836 5834 5832 5831 5830 5829 5828 5828 5829 5829 5830 5831 5833 5835 5837 5839 5842 5845 5847 5850 5852 5854 5856 5857 5860 5862 5863 5864 5864 5863 5865 5871 5877 5882 5886 5889
5853 5850 5848 5845 5842 5839 5836 5833 5831 5829 5827 5826 5825 5825 5824 5825 5825 5826 5827 5829 5831 5833 5836 5839 5842 5844 5847 5849 5851 5853 5855 5857 5859 5862 5863 5863 5863 5864 5870 5876 5881 5885 5888
5851 5848 5846 5843 5840 5837 5834 5831 5828 5826 5824 5823 5821 5821 5820 5820 5821 5822 5823 5825 5827 5829 5832 5835 5838 5841 5844 5846 5848 5850 5851 5853 5857 5860 5863 5864 5866 5868 5871 5876 5881 5884 5888
5849 5847 5844 5841 5838 5835 5832 5829 5826 5823 5821 5819 5818 5817 5816 5816 5816 5817 5819 5821 5823 5825 5828 5831 5834 5837 5840 5843 5845 5846 5847 5850 5855 5859 5862 5864 5867 5870 5873 5876 5880 5883 5886
5847 5845 5842 5839 5836 5833 5829 5826 5823 5821 5818 5816 5815 5813 5812 5812 5812 5813 5815 5817 5818 5821 5824 5827 5831 5834 5837 5840 5842 5844 5846 5849 5853 5857 5860 5863 5866 5869 5872 5876 5879 5882 5885
5846 5843 5840 5837 5834 5831 5827 5824 5821 5818 5816 5814 5812 5810 5809 5809 5809 5809 5811 5813 5815 5817 5820 5823 5827 5830 5833 5836 5840 5842 5845 5848 5852 5855 5859 5862 5865 5868 5871 5874 5878 5881 5883
5844 5841 5838 5835 5832 5829 5825 5822 5819 5816 5813 5811 5809 5808 5806 5806 5806 5806 5807 5809 5811 5813 5816 5819 5823 5826 5830 5833 5836 5839 5843 5846 5850 5853 5857 5860 5863 5866 5869 5872 5875 5878 5881
5842 5839 5836 5833 5830 5827 5823 5820 5817 5814 5811 5809 5807 5805 5804 5804 5803 5803 5804 5805 5807 5810 5812 5815 5818 5822 5826 5829 5833 5836 5839 5843 5846 5850 5854 5857 5861 5864 5867 5870 5873 5876 5879
5840 5837 5835 5831 5828 5825 5822 5818 5815 5812 5809 5807 5805 5803 5801 5800 5800 5801 5801 5802 5804 5806 5808 5812 5815 5818 5822 5826 5829 5833 5836 5840 5843 5847 5850 5854 5857 5861 5864 5867 5870 5873 5876
5838 5835 5832 5829 5826 5823 5820 5816 5813 5810 5807 5805 5802 5801 5799 5798 5798 5798 5798 5799 5800 5802 5805 5808 5811 5814 5818 5822 5825 5829 5832 5836 5840 5843 5847 5850 5854 5857 5861 5864 5867 5870 5873
5836 5833 5830 5827 5824 5821 5818 5814 5811 5808 5805 5803 5801 5799 5797 5796 5795 5795 5795 5796 5797 5799 5801 5803 5807 5810 5814 5817 5821 5825 5828 5832 5835 5839 5843 5846 5850 5853 5857 5861 5864 5867 5870
5834 5831 5828 5825 5822 5819 5815 5812 5809 5806 5803 5801 5799 5797 5795 5794 5793 5792 5793 5793 5794 5795 5797 5800 5803 5806 5809 5813 5816 5820 5824 5827 5831 5835 5838 5842 5845 5849 5853 5856 5860 5863 5866
5832 5828 5825 5822 5819 5816 5813 5810 5807 5804 5801 5799 5797 5794 5793 5792 5791 5790 5790 5791 5792 5793 5794 5796 5799 5802 5805 5808 5812 5815 5819 5823 5826 5830 5834 5837 5841 5844 5848 5852 5855 5858 5861
5829 5825 5822 5818 5815 5812 5809 5807 5804 5801 5799 5797 5794 5792 5791 5789 5788 5788 5788 5788 5789 5790 5791 5793 5795 5798 5801 5804 5807 5811 5814 5818 5822 5825 5829 5832 5836 5839 5843 5847 5850 5853 5856
5825 5821 5818 5815 5812 5809 5806 5803 5801 5798 5796 5794 5792 5790 5788 5787 5786 5785 5785 5786 5787 5787 5788 5790 5792 5794 5797 5799 5803 5806 5810 5813 5817 5820 5824 5827 5831 5834 5838 5841 5844 5848 5851
5821 5817 5814 5811 5808 5805 5802 5799 5797 5795 5793 5791 5789 5787 5786 5784 5783 5782 5782 5782 5782 5784 5785 5786 5788 5790 5792 5795 5798 5801 5804 5808 5811 5815 5818 5822 5825 5829 5832 5835 5839 5842 5845
5816 5813 5809 5806 5803 5800 5797 5795 5793 5791 5789 5787 5785 5784 5783 5781 5780 5779 5779 5778 5779 5779 5781 5782 5783 5785 5787 5790 5792 5795 5799 5802 5805 5809 5812 5816 5819 5823 5826 5829 5832 5836 5839
5811 5808 5804 5800 5797 5794 5792 5790 5788 5786 5785 5783 5781 5780 5779 5778 5777 5776 5775 5775 5775 5775 5776 5777 5778 5780 5782 5784 5787 5790 5793 5796 5799 5803 5806 5810 5813 5816 5819 5823 5826 5829 5832
5805 5801 5798 5794 5791 5788 5786 5784 5782 5781 5780 5778 5777 5776 5774 5773 5772 5772 5771 5771 5770 5770 5771 5772 5773 5774 5776 5778 5781 5784 5787 5790 5793 5796 5799 5803 5806 5809 5813 5816 5819 5822 5825
5799 5795 5790 5787 5783 5780 5778 5777 5775 5774 5773 5772 5771 5770 5769 5768 5767 5766 5766 5765 5765 5765 5766 5766 5767 5768 5770 5772 5775 5777 5780 5783 5786 5789 5792 5795 5799 5802 5805 5809 5812 5815 5817
5792 5787 5783 5779 5775 5772 5770 5768 5766 5766 5765 5765 5764 5763 5762 5762 5761 5760 5759 5759 5759 5759 5759 5760 5761 5762 5764 5765 5768 5770 5773 5776 5779 5782 5785 5788 5791 5794 5797 5800 5803 5806 5809
5784 5780 5776 5771 5767 5764 5761 5759 5757 5756 5756 5756 5756 5755 5755 5754 5753 5753 5752 5752 5752 5752 5752 5753 5754 5755 5757 5758 5760 5763 5765 5768 5772 5775 5777 5780 5783 5786 5789 5792 5796 5798 5801
5776 5772 5767 5763 5759 5755 5752 5750 5748 5747 5747 5747 5746 5746 5746 5745 5744 5744 5744 5743 5743 5743 5744 5745 5746 5747 5749 5751 5753 5755 5758 5760 5764 5766 5769 5772 5775 5778 5781 5784 5787 5790 5793
5768 5764 5759 5755 5751 5747 5743 5740 5739 5738 5737 5737 5736 5735 5735 5735 5734 5734 5733 5733 5733 5734 5735 5735 5737 5738 5740 5742 5744 5747 5749 5752 5755 5758 5761 5764 5767 5770 5773 5775 5778 5781 5784
5759 5755 5750 5746 5741 5737 5733 5730 5728 5727 5726 5726 5724 5723 5723 5722 5722 5721 5721 5722 5722 5723 5724 5725 5726 5728 5730 5732 5735 5737 5740 5743 5747 5750 5752 5756 5758 5761 5764 5767 5769 5772 5775
5750 5745 5740 5735 5731 5726 5722 5719 5717 5715 5714 5713 5712 5711 5710 5709 5708 5707 5707 5708 5709 5710 5711 5713 5715 5717 5720 5722 5725 5728 5731 5734 5738 5741 5744 5747 5749 5752 5755 5758 5761 5763 5766
Wind_Speed
12 13 14 15 15 15 15 15 15 14 14 14 14 14 15 16 16 17 17 18 19 20 20 20 19 18 17 16 15 14 14 14 14 15 15 15 16 19 22 21 20 20 19
13 14 15 15 15 15 15 15 14 14 14 14 14 14 15 16 17 17 18 19 20 20 21 21 20 20 19 17 17 15 15 15 16 16 16 16 17 19 22 22 21 20 19
14 15 15 16 16 16 15 15 15 15 14 14 14 14 15 15 16 17 18 18 20 21 21 21 21 21 20 19 18 17 16 17 17 18 17 18 18 19 21 22 21 20 19
14 15 16 16 16 16 16 15 15 15 14 13 13 13 14 15 15 17 17 18 19 21 21 21 22 22 21 20 19 18 16 18 18 19 19 19 19 20 20 21 20 19 19
15 16 16 17 17 16 16 16 15 15 14 13 13 12 12 13 14 16 17 18 19 21 22 22 22 23 22 21 20 19 18 19 20 20 20 20 20 20 21 21 20 20 19
15 16 16 17 17 17 17 16 16 15 14 13 12 12 11 12 13 14 16 17 19 20 22 23 23 23 23 22 21 21 20 21 21 21 21 22 21 21 21 21 21 20 20
15 16 17 17 18 18 17 17 16 15 14 13 12 11 11 10 11 13 14 16 18 20 21 23 24 24 24 23 22 23 23 22 22 22 22 23 22 21 21 22 21 21 21
16 16 17 18 18 18 17 17 17 16 14 13 12 11 10 10 10 11 13 15 17 20 21 22 24 24 25 24 24 23 23 23 22 23 24 24 23 22 21 21 22 22 21
16 17 17 18 18 18 18 17 17 16 15 13 12 10 9 9 9 10 12 14 16 18 21 23 24 25 25 25 26 25 24 24 23 24 24 25 24 24 23 22 22 22 21
17 17 18 18 18 18 18 18 17 16 15 14 12 10 9 8 9 9 11 13 15 17 20 22 24 25 25 25 26 27 27 26 25 26 25 25 25 25 24 23 22 22 22
18 18 19 19 19 19 18 18 17 16 15 14 12 10 9 8 8 9 9 11 14 16 19 21 24 25 26 26 26 27 27 27 27 27 26 26 26 25 25 25 24 23 23
18 19 19 19 19 19 18 18 17 16 15 14 13 11 9 9 8 8 9 10 13 15 17 18 22 24 25 26 26 27 28 28 27 28 27 26 26 26 26 26 25 24 23
19 19 20 19 19 19 19 18 17 16 15 14 13 12 10 9 8 8 8 10 12 14 16 18 20 23 25 25 26 27 28 29 28 28 28 27 27 28 27 27 26 25 24
20 20 21 20 20 19 19 18 17 16 15 14 13 12 11 10 8 8 8 10 11 13 15 17 19 22 24 25 26 27 27 28 28 28 28 28 28 28 29 28 27 26 26
20 21 21 21 21 20 19 19 18 17 16 15 13 13 12 10 9 9 9 10 12 13 15 17 19 20 23 25 25 26 27 27 29 29 29 29 30 30 29 29 29 28 28
22 21 21 22 21 21 20 19 19 17 16 16 14 13 12 11 10 10 10 11 12 14 16 18 19 21 22 24 25 26 27 28 29 29 29 30 30 31 31 30 29 29 29
24 23 24 23 22 22 21 20 19 18 17 17 16 15 14 13 12 12 12 12 13 14 15 18 20 21 22 24 25 26 27 28 28 29 29 30 30 30 31 31 30 30 30
26 26 25 25 24 23 22 21 21 20 19 18 17 16 16 15 14 14 13 13 13 15 16 18 20 22 23 24 25 27 28 28 29 30 30 30 31 31 32 31 31 31 32
27 28 27 26 26 25 24 23 22 22 20 20 19 18 17 17 16 15 15 15 15 15 17 18 20 22 24 26 26 27 28 29 29 30 31 31 31 31 31 32 32 32 32
29 29 29 28 28 27 26 25 24 23 22 22 21 20 19 19 18 18 18 18 18 18 18 19 20 22 24 26 27 28 29 29 30 30 31 32 32 32 33 32 33 34 33
30 31 31 30 29 28 28 27 26 25 25 24 23 22 22 21 20 20 20 20 20 20 20 21 21 22 24 26 28 29 30 30 31 31 31 32 32 33 34 34 34 34 34
32 32 32 32 31 30 29 28 28 27 27 26 26 25 25 24 24 24 23 23 23 23 23 24 24 24 25 26 28 30 30 31 31 32 32 32 32 34 34 34 33 33 34
34 34 34 33 33 32 31 30 29 28 29 29 29 29 28 28 28 27 27 26 26 26 26 26 26 27 27 27 28 30 31 32 33 33 33 32 32 33 34 34 34 33 33
35 35 35 35 35 35 34 33 32 31 31 32 32 32 32 32 31 31 31 30 29 28 28 28 28 28 28 29 30 31 32 33 33 34 33 33 33 32 33 33 34 34 34
36 36 37 38 38 38 37 36 35 34 33 34 35 35 35 35 35 35 35 33 32 32 32 32 31 31 31 31 31 32 33 33 34 33 33 34 34 34 34 33 33 33 34
38 39 40 41 41 40 39 38 37 37 36 36 37 37 38 38 38 37 37 37 35 35 34 34 34 34 33 33 33 33 33 34 34 33 33 33 34 34 34 33 34 34 33
Wind_Direction
340 340 338 335 332 329 326 321 314 306 298 290 283 276 269 263 256 250 244 239 235 232 230 228 226 225 224 224 222 220 215 209 209 205 199 196 191 190 189 187 188 188 187
342 342 342 340 337 334 330 326 321 313 305 296 287 279 271 264 257 250 245 240 235 231 228 226 225 224 224 223 221 222 217 215 210 203 198 192 186 184 188 188 188 190 191
340 341 342 342 340 338 334 330 325 319 311 302 292 284 274 267 258 249 244 240 235 230 227 226 224 223 223 223 220 221 218 214 208 200 195 190 186 185 186 187 190 193 194
339 341 342 342 342 340 337 334 329 323 317 309 299 291 279 268 259 250 244 239 234 231 227 226 224 222 221 220 218 217 214 208 207 201 197 194 192 190 190 190 192 194 195
338 339 340 342 342 341 339 336 333 329 324 316 306 298 286 273 260 251 244 239 234 230 227 225 223 221 220 218 215 212 210 206 205 202 199 198 195 195 194 194 196 198 199
338 338 340 341 342 342 341 339 335 331 327 322 313 304 292 276 262 253 245 239 234 230 227 225 223 220 218 216 214 211 209 206 207 204 201 198 198 199 197 198 201 203 203
338 339 340 340 341 341 341 341 339 334 330 325 318 309 299 281 264 256 248 240 234 229 226 224 221 219 217 216 215 213 210 208 210 209 205 203 203 202 201 202 204 205 206
338 339 339 339 340 340 341 341 340 338 334 328 323 314 301 289 269 257 250 240 233 230 228 224 219 218 217 216 215 214 212 212 211 211 210 208 207 205 204 204 207 208 209
336 337 338 338 339 339 339 339 338 337 335 331 326 318 305 290 279 263 253 244 236 230 227 223 219 219 218 217 216 215 214 213 214 213 212 213 212 210 209 209 207 209 210
337 337 337 337 337 337 337 337 337 335 335 333 327 319 309 293 281 268 255 245 237 230 226 223 221 220 219 219 217 216 215 215 216 215 215 215 214 212 213 212 211 212 214
337 335 335 334 334 334 334 335 335 335 334 333 329 322 312 298 285 272 259 246 237 231 227 224 221 221 220 220 217 216 215 215 216 216 216 216 214 214 215 215 216 217 218
335 334 332 332 332 332 331 332 333 334 333 332 329 322 316 305 291 274 259 249 240 235 230 225 221 220 220 220 219 218 216 216 215 216 216 216 216 217 218 218 218 220 222
332 332 331 331 330 330 330 330 330 330 331 330 328 323 315 310 298 280 259 248 242 237 233 227 223 221 220 220 220 219 219 218 217 216 217 218 219 220 220 219 221 222 223
330 330 329 330 329 328 327 327 326 326 325 325 325 322 315 308 298 287 269 253 244 239 234 228 225 222 220 220 220 221 220 220 219 219 220 220 220 222 222 222 223 224 225
327 327 326 326 326 325 324 323 322 321 320 320 320 319 315 305 297 288 275 260 250 242 234 231 228 226 224 223 222 222 223 225 224 224 223 223 223 223 224 224 226 226 228
324 324 323 323 322 321 320 320 320 319 316 314 314 314 311 305 296 287 277 266 255 245 238 234 229 229 228 226 226 225 225 226 226 226 227 227 226 226 226 226 227 228 229
322 322 321 320 318 316 315 315 315 315 315 313 309 308 306 300 294 288 281 272 260 249 242 238 235 232 230 229 228 227 227 226 226 227 228 229 230 228 228 229 229 230 230
318 318 317 315 313 311 310 309 309 308 308 309 308 305 302 296 291 287 281 274 264 253 247 243 240 236 234 231 230 230 229 228 228 228 228 230 232 233 232 232 232 232 233
315 315 315 312 310 307 305 303 303 301 300 301 301 300 299 295 288 284 280 275 266 258 252 248 245 240 236 233 231 230 230 231 231 230 230 231 232 233 234 233 234 235 236
312 312 312 310 308 305 302 299 298 295 294 294 293 292 293 293 288 282 278 274 268 260 255 251 248 244 238 235 233 233 232 232 232 231 231 232 233 234 234 235 236 237 239
312 312 311 310 307 304 301 298 297 293 290 289 287 287 287 288 287 283 278 274 269 261 256 252 249 246 242 238 236 234 232 232 232 230 231 232 234 235 235 236 238 239 239
311 310 310 309 306 303 299 296 295 291 288 286 285 283 283 284 283 281 278 274 268 263 257 253 250 248 244 240 237 234 233 232 231 231 232 234 234 233 234 236 238 240 240
308 309 309 308 306 303 298 294 292 288 286 285 284 282 281 281 280 278 275 272 268 264 259 255 251 248 245 242 238 235 234 233 232 232 232 234 236 235 236 236 238 240 241
307 307 307 308 306 303 299 294 293 289 285 284 282 281 279 278 278 276 273 269 266 262 258 255 252 248 246 243 239 236 235 234 233 234 234 236 237 237 237 238 240 241 242
305 305 306 306 305 302 299 294 293 291 287 284 282 280 279 277 275 274 272 268 264 260 256 253 250 248 245 243 241 239 237 236 235 235 236 237 237 238 238 238 240 242 242
305 305 305 306 305 302 298 294 291 289 286 283 282 280 278 277 275 273 270 267 262 258 255 252 249 246 244 242 241 240 238 236 235 235 236 236 237 238 238 238 239 240 241